KK7N Weather Reports


Display with metric or nautical units.
time (UTC)temp
F
wind
direction
speed
MPH
gust
MPH
rain 1hr
in
rain 24hr
in
rain mn
in
humidity
%
barometer
mb
20260502203048 65 0 1.0 5.0 0.00 0.02 0.02 68 1014.5
20260502201543 65 0 1.0 9.0 0.00 0.02 0.02 71 1014.7
20260502200049 64 298 1.0 7.0 0.00 0.02 0.02 69 1014.8
20260502194552 62 268 2.0 7.0 0.00 0.02 0.02 75 1015.0
20260502193057 60 259 3.0 7.0 0.00 0.02 0.02 74 1015.1
20260502191550 59 261 2.0 9.0 0.00 0.02 0.02 80 1015.4
20260502190044 58 274 1.0 8.0 0.00 0.02 0.02 83 1015.5
20260502184543 57 0 0.0 4.0 0.00 0.02 0.02 84 1015.1
20260502183046 56 0 0.0 5.0 0.00 0.02 0.02 84 1015.4
20260502181548 56 334 0.0 3.0 0.00 0.02 0.02 86 1015.6
20260502163048 52 0 0.0 0.0 0.00 0.02 0.02 92 1016.2
20260502161603 52 0 0.0 0.0 0.00 0.02 0.02 92 1016.2
20260502151544 52 0 0.0 0.0 0.00 0.02 0.02 92 1016.5
20260502130104 51 269 0.0 3.0 0.00 0.02 0.02 92 1016.2
20260502123111 51 269 0.0 0.0 0.00 0.02 0.02 92 1016.2
20260502121548 50 269 1.0 6.0 0.00 0.02 0.02 92 1016.2
20260502114556 51 265 2.0 6.0 0.00 0.02 0.02 92 1016.2
20260502113046 51 0 0.0 6.0 0.00 0.02 0.02 92 1015.9
20260502111545 51 284 2.0 6.0 0.00 0.02 0.02 92 1015.9
20260502110051 51 284 1.0 5.0 0.00 0.02 0.02 92 1016.1
20260502104547 51 254 2.0 6.0 0.00 0.02 0.02 92 1016.0
20260502103048 51 0 0.0 0.0 0.00 0.02 0.02 92 1016.1
20260502101555 51 0 1.0 5.0 0.00 0.02 0.02 92 1015.7
20260502070041 54 292 3.0 9.0 0.00 0.00 0.00 79 1017.0
20260502064547 55 306 1.0 8.0 0.00 0.00 0.00 78 1016.9
20260502063055 56 319 2.0 7.0 0.00 0.00 0.00 77 1016.9
20260502061544 56 324 3.0 6.0 0.00 0.00 0.00 76 1017.1
20260502060045 57 324 2.0 5.0 0.00 0.00 0.00 75 1016.8
20260502054542 57 318 1.0 6.0 0.00 0.00 0.00 74 1016.6
20260502053048 58 321 1.0 9.0 0.00 0.00 0.00 73 1017.0
20260502051544 58 340 2.0 11.0 0.00 0.00 0.00 72 1016.5
20260502050047 59 306 7.0 14.0 0.00 0.00 0.00 71 1016.4
20260502044548 60 328 5.0 16.0 0.00 0.00 0.00 70 1016.1
20260502043046 61 325 2.0 12.0 0.00 0.00 0.00 69 1016.2
20260502041547 62 287 5.0 13.0 0.00 0.00 0.00 68 1015.8
20260502040047 63 294 9.0 18.0 0.00 0.00 0.00 66 1015.5
20260502034548 64 285 5.0 15.0 0.00 0.00 0.00 65 1015.3
20260502033048 65 308 7.0 13.0 0.00 0.00 0.00 63 1015.1
20260502031546 67 288 7.0 13.0 0.00 0.00 0.00 62 1014.9
20260502030042 68 329 4.0 11.0 0.00 0.00 0.00 60 1014.6
20260502024550 69 348 2.0 9.0 0.00 0.00 0.00 56 1014.3
20260502023045 70 0 1.0 6.0 0.00 0.00 0.00 52 1014.2
20260502021544 71 14 0.0 5.0 0.00 0.00 0.00 51 1014.1
20260502020050 72 5 1.0 11.0 0.00 0.00 0.00 51 1014.1
20260502014543 73 330 4.0 11.0 0.00 0.00 0.00 52 1014.0
20260502013049 74 338 7.0 11.0 0.00 0.00 0.00 51 1013.9
20260502011546 75 323 6.0 12.0 0.00 0.00 0.00 51 1013.8
20260502010052 76 321 3.0 12.0 0.00 0.00 0.00 47 1013.8
20260502004555 77 271 4.0 8.0 0.00 0.00 0.00 42 1013.8
20260502003043 77 292 5.0 11.0 0.00 0.00 0.00 42 1013.7
20260502001543 77 266 4.0 10.0 0.00 0.00 0.00 42 1013.7
20260502000041 77 281 5.0 9.0 0.00 0.00 0.00 43 1013.8
20260501234544 76 323 2.0 8.0 0.00 0.00 0.00 44 1013.7
20260501233047 76 249 5.0 10.0 0.00 0.00 0.00 46 1013.8
20260501231544 75 294 3.0 8.0 0.00 0.00 0.00 46 1014.0
20260501230043 75 298 0.0 9.0 0.00 0.00 0.00 47 1014.1
20260501224547 74 5 2.0 5.0 0.00 0.00 0.00 48 1014.5
20260501223050 75 336 2.0 9.0 0.00 0.00 0.00 52 1014.7
20260501221544 74 5 1.0 5.0 0.00 0.00 0.00 47 1014.8
20260501220052 74 15 0.0 5.0 0.00 0.00 0.00 53 1015.1
20260501214542 74 301 0.0 3.0 0.00 0.00 0.00 54 1015.3
20260501213048 74 301 4.0 10.0 0.00 0.00 0.00 47 1015.5
20260501211542 73 338 2.0 8.0 0.00 0.00 0.00 51 1015.5
20260501210059 73 344 0.0 9.0 0.00 0.00 0.00 54 1015.6
20260501204548 73 317 4.0 9.0 0.00 0.00 0.00 54 1015.9